Regional Weather Roundup
Issued by NWS

Home | Current Version | Previous Version | Graphics & Text | Print | Product List | Glossary On
Versions: 1 2 3 4 5 6 7 8 9 10 11 12 13 14 15 16 17 18 19 20 21 22 23 24 25 26 27 28 29 30 31 32 33 34 35 36 37 38 39 40 41 42 43 44 45 46 47 48 49 50
000
ASUS45 KCYS 222310
RWRWY

WYOMING REGIONAL WEATHER ROUNDUP
NATIONAL WEATHER SERVICE CHEYENNE WY
500 PM MDT FRI JUL 22 2016

NOTE:  "FAIR" INDICATES FEW OR NO CLOUDS BELOW 12,000 FEET
WITH NO SIGNIFICANT WEATHER AND/OR OBSTRUCTIONS TO VISIBILITY.

WYZ001-230000-
YELLOWSTONE NATIONAL PARK

CITY           SKY/WX    TMP DP  RH WIND       PRES   REMARKS
LK YELLOWSTONE   N/A     78  34  20 VRB5G22   30.30F
W YELLOWSTONE  NOT AVBL

$$
WYZ002>013-054>058-071-098>099-230000-
NORTHERN WYOMING

CITY           SKY/WX    TMP DP  RH WIND       PRES   REMARKS
JACKSON        MOSUNNY   88  36  15 SW17G25   30.18S
CODY           FAIR      84  43  23 S12       30.05F
GREYBULL       FAIR      94  40  15 NW31G43   29.93R HX  90
WORLAND        FAIR      94  38  14 W25G32    29.94R
SHERIDAN       FAIR     100  37  11 E3        29.90F HX  95
BUFFALO        FAIR      97  36  12 N8        30.00F HX  92
GILLETTE       FAIR      94  40  15 NE13G25   29.96F HX  90
HULETT         FAIR      90  45  20 N13G21    29.99F
NEWCASTLE      FAIR      82  45  26 SE15      30.05S

$$
WYZ014>020-022>026-101>103-230000-
CENTRAL WYOMING

CITY           SKY/WX    TMP DP  RH WIND       PRES   REMARKS
BIG PINEY      FAIR      86  41  20 S6        30.26S
PINEDALE       MOCLDY    72  52  49 SE20G25   30.29R
DUBOIS         FAIR      79  36  21 NW7G30    30.25R
LANDER         FAIR      79  43  27 SW37G61   30.13R
RIVERTON       FAIR      89  39  17 NW22G29   30.10R
CASPER         FAIR      91  41  17 SE6       30.05F
DOUGLAS          N/A    N/A N/A N/A MISG      30.04F

$$
WYZ021-027>030-104>119-230000-
SOUTHERN WYOMING

CITY           SKY/WX    TMP DP  RH WIND       PRES   REMARKS
EVANSTON       FAIR      87  39  18 W17G33    30.29F
KEMMERER         N/A     86  32  14 W22G32    30.29S
FORT BRIDGER   FAIR      87  37  16 CALM      30.30F
ROCK SPRINGS   FAIR      81  41  24 N15G21    30.28S
DIXON          FAIR      89  36  15 SW5       30.26F
RAWLINS        FAIR      86  36  16 W10G22    30.24F
SARATOGA       FAIR      88  34  14 W8G20     30.28F
LARAMIE        FAIR      84  39  20 NW8G16    30.27F
CHEYENNE       FAIR      84  45  25 W15       30.19F
TORRINGTON     PTSUNNY   94  53  25 SE18G26   30.00S HX  91
PINE BLUFFS    FAIR      88  50  27 SE8       30.11F

$$



USA.gov is the U.S. government's official web portal to all federal, state and local government web resources and services.